Regional Weather Roundup
Issued by NWS

Home | Current Version | Previous Version | Text Only | Print | Product List | Glossary Off
Versions: 1 2 3 4 5 6 7 8 9 10 11 12 13 14 15 16 17 18 19 20 21 22 23 24 25 26 27 28 29 30 31 32 33 34 35 36 37 38 39 40 41 42 43 44 45 46 47 48 49 50

000
ASUS43 KOAX 041410
RWRNE

WEATHER ROUNDUP FOR NEBRASKA
NATIONAL WEATHER SERVICE OMAHA NE
800 AM CST WED MAR 04 2015

NOTES: SATELLITE DATA IS BEING USED TO AUGMENT CLOUD COVER ABOVE
       12000 FEET.
       "FAIR" INDICATES FEW OR NO CLOUDS BELOW 12,000 FEET WITH NO
       SIGNIFICANT WEATHER AND/OR OBSTRUCTIONS TO VISIBILITY.

  * THESE STATIONS DO NOT REPORT WEATHER SUCH AS RAIN...SNOW OR FOG.

NEZ001>004-019>022-054>056-041500-
NEBRASKA PANHANDLE

CITY           SKY/WX    TMP DP  RH WIND       PRES   REMARKS
SCOTTSBLUFF    PTCLDY     7   2  80 NW5       30.15R WCI  -2
ALLIANCE       PTCLDY    -1  -7  75 SW10      30.14R WCI -17
CHADRON        CLEAR     -4 -11  72 W9        30.18R WCI -20
KIMBALL        CLOUDY     8   4  82 W6        30.08R WCI  -2
SIDNEY         CLOUDY     8   2  76 W9        30.14R WCI  -5
$$

NEZ057>060-069>072-079>082-041500-
SOUTHWEST NEBRASKA

CITY           SKY/WX    TMP DP  RH WIND       PRES   REMARKS
NORTH PLATTE   PTCLDY     9   5  84 NW3       30.22R
IMPERIAL         N/A     13   7  77 NW7       30.21R WCI   3
LEXINGTON      PTCLDY    13   9  84 NW10      30.24R WCI   0
MCCOOK         CLOUDY    16  11  80 NW7       30.24R WCI   6
OGALLALA       PTCLDY     6   1  80 CALM      30.20R
$$

NEZ005>010-023>029-035>040-094-041500-
NORTH CENTRAL NEBRASKA

CITY           SKY/WX    TMP DP  RH WIND       PRES   REMARKS
VALENTINE      CLEAR      3  -3  76 W10       30.20R WCI -12
AINSWORTH      CLEAR      9   2  73 NW8       30.19R WCI  -3
BROKEN BOW     PTCLDY    11   4  73 W9        30.21R WCI  -2
O`NEILL        CLEAR     13   5  71 W9        30.22R WCI   0
ORD            CLEAR     11   2  67 NW5       30.23R WCI   3
THEDFORD       PTCLDY     8   3  78 W9        30.19R WCI  -5
$$

NEZ041-046>049-061>064-073>077-083>087-041500-
SOUTH CENTRAL NEBRASKA

CITY           SKY/WX    TMP DP  RH WIND       PRES   REMARKS
GRAND ISLAND   MOCLDY    13   8  81 W8        30.26R WCI   2
AURORA         PTCLDY    13   8  79 W5        30.25R WCI   5
HASTINGS       PTCLDY    12   8  84 NW10      30.24R WCI  -1
HEBRON         MOSUNNY   12   9  87 CALM      30.29R
HOLDREGE       CLOUDY    12   9  85 W5        30.24R WCI   4
KEARNEY *      MOCLDY    12   9  85 NW7       30.25R WCI   2
YORK           MOSUNNY   12   9  85 NW7       30.26R WCI   2
$$

NEZ011>018-030>034-042>045-041500-
NORTHEAST NEBRASKA

CITY           SKY/WX    TMP DP  RH WIND       PRES   REMARKS
NORFOLK        PTCLDY    14   4  64 W12       30.22R WCI   0
ALBION         PTCLDY    15   3  59 NW6       30.24R WCI   6
BLAIR          MOSUNNY   16   7  68 CALM      30.25R
COLUMBUS *     MOSUNNY   16   0  48 W7        30.26R WCI   6
FREMONT        MOSUNNY   16  10  75 W3        30.26R
TEKAMAH        SUNNY     14   7  73 W5        30.27R WCI   6
WAYNE          FAIR      12   6  76 W8        30.23R WCI   1
$$

NEZ050>053-065>068-078-088>093-041500-
SOUTHEAST NEBRASKA

CITY           SKY/WX    TMP DP  RH WIND       PRES   REMARKS
LINCOLN        MOSUNNY   17  13  84 CALM      30.28R
OMAHA EPPLEY   MOSUNNY   18   8  65 N3        30.28R
BEATRICE       SUNNY      8   6  90 W3        30.28R
FALLS CITY     SUNNY     16  11  80 N3        30.29R
NEBRASKA CITY  SUNNY     14  10  85 NW6       30.28R WCI   5
PLATTSMOUTH    MOSUNNY   13   9  85 W5        30.26R WCI   5
$$

NEZ044-045-051>053-067-041500-
OMAHA AREA

CITY           SKY/WX    TMP DP  RH WIND       PRES   REMARKS
OMAHA EPPLEY   MOSUNNY   18   8  65 N3        30.28R
BLAIR          MOSUNNY   16   7  68 CALM      30.25R
FREMONT        MOSUNNY   16  10  75 W3        30.26R
MILLARD        MOSUNNY   18  10  71 CALM      30.28R
OFFUTT AFB     MOSUNNY   16  10  77 W2        30.27R
PLATTSMOUTH    MOSUNNY   13   9  85 W5        30.26R WCI   5
WAHOO          FAIR      14  10  84 CALM      30.27R
$$


USA.gov is the U.S. government's official web portal to all federal, state and local government web resources and services.